Time,TemperatureF,DewpointF,PressureIn,WindDirection,WindDirectionDegrees,WindSpeedMPH,WindSpeedGustMPH,Humidity,HourlyPrecipIn,Conditions,Clouds,dailyrainin,SoftwareType,DateUTC
2013-08-03 00:00:00,57.8,57.8,29.49,SSW,194,5.0,5.0,100,0.00,,,0.00,Wunderground v.1.15,2013-08-03 08:00:00,
2013-08-03 00:10:00,57.6,57.6,29.49,SSW,194,3.0,3.0,100,0.00,,,0.00,Wunderground v.1.15,2013-08-03 08:10:00,
2013-08-03 00:15:00,57.5,57.5,29.49,SSW,194,3.0,3.0,100,0.00,,,0.00,Wunderground v.1.15,2013-08-03 08:15:00,
2013-08-03 00:25:00,57.3,57.3,29.49,SSW,194,3.0,5.0,100,0.00,,,0.00,Wunderground v.1.15,2013-08-03 08:25:00,
2013-08-03 00:35:00,57.3,57.3,29.49,SSW,194,2.0,3.0,100,0.00,,,0.00,Wunderground v.1.15,2013-08-03 08:35:00,
2013-08-03 00:44:00,57.3,57.3,29.49,SSW,194,2.0,2.0,100,0.00,,,0.00,Wunderground v.1.15,2013-08-03 08:44:00,
2013-08-03 00:50:00,57.2,57.2,29.49,SSW,194,2.0,2.0,100,0.00,,,0.01,Wunderground v.1.15,2013-08-03 08:50:00,
2013-08-03 01:00:00,57.3,57.3,29.49,SSW,194,1.0,2.0,100,0.00,,,0.01,Wunderground v.1.15,2013-08-03 09:00:00,
2013-08-03 01:10:00,57.3,57.3,29.49,SSW,194,2.0,3.0,100,0.00,,,0.01,Wunderground v.1.15,2013-08-03 09:10:00,
2013-08-03 01:20:00,57.3,57.3,29.49,SSW,194,2.0,2.0,100,0.00,,,0.01,Wunderground v.1.15,2013-08-03 09:20:00,
2013-08-03 01:25:00,57.3,57.3,29.49,SSW,194,2.0,2.0,100,0.00,,,0.01,Wunderground v.1.15,2013-08-03 09:25:00,
2013-08-03 01:35:00,57.3,57.3,29.49,SSW,194,2.0,2.0,100,0.00,,,0.01,Wunderground v.1.15,2013-08-03 09:35:00,
2013-08-03 01:40:00,57.3,57.3,29.49,SSW,194,3.0,3.0,100,0.00,,,0.01,Wunderground v.1.15,2013-08-03 09:40:00,
2013-08-03 01:49:00,57.2,57.2,29.48,SSW,194,3.0,3.0,100,0.00,,,0.01,Wunderground v.1.15,2013-08-03 09:49:00,
2013-08-03 01:55:00,57.2,57.2,29.48,SSW,194,3.0,3.0,100,0.00,,,0.01,Wunderground v.1.15,2013-08-03 09:55:00,
2013-08-03 02:00:00,57.2,57.2,29.48,SSW,194,2.0,2.0,100,0.00,,,0.01,Wunderground v.1.15,2013-08-03 10:00:00,
2013-08-03 02:10:00,57.0,57.0,29.48,SSW,194,0.0,2.0,100,0.00,,,0.01,Wunderground v.1.15,2013-08-03 10:10:00,
2013-08-03 02:20:00,56.7,56.7,29.48,SSW,194,1.0,1.0,100,0.00,,,0.01,Wunderground v.1.15,2013-08-03 10:20:00,
2013-08-03 02:30:00,56.6,56.6,29.48,SSW,194,1.0,1.0,100,0.00,,,0.01,Wunderground v.1.15,2013-08-03 10:30:00,
2013-08-03 02:40:00,56.5,56.5,29.48,SSW,194,0.0,0.0,100,0.00,,,0.01,Wunderground v.1.15,2013-08-03 10:40:00,
2013-08-03 02:45:00,56.3,56.3,29.48,SSW,194,0.0,0.0,100,0.00,,,0.01,Wunderground v.1.15,2013-08-03 10:45:00,
2013-08-03 02:55:00,56.5,56.5,29.48,SSW,194,0.0,0.0,100,0.00,,,0.01,Wunderground v.1.15,2013-08-03 10:55:00,
2013-08-03 03:05:00,56.2,56.2,29.48,SSW,194,0.0,0.0,100,0.00,,,0.01,Wunderground v.1.15,2013-08-03 11:05:00,
2013-08-03 03:15:00,56.0,56.0,29.48,SSW,194,0.0,0.0,100,0.00,,,0.01,Wunderground v.1.15,2013-08-03 11:15:00,
2013-08-03 03:25:00,55.7,55.7,29.48,SSW,194,0.0,0.0,100,0.00,,,0.01,Wunderground v.1.15,2013-08-03 11:25:00,
2013-08-03 03:35:00,55.6,55.6,29.47,SSW,194,0.0,0.0,100,0.00,,,0.01,Wunderground v.1.15,2013-08-03 11:35:00,
2013-08-03 03:40:00,55.7,55.7,29.47,SSW,194,1.0,1.0,100,0.00,,,0.01,Wunderground v.1.15,2013-08-03 11:40:00,
2013-08-03 03:50:00,54.5,54.5,29.47,SSW,194,1.0,2.0,100,0.00,,,0.01,Wunderground v.1.15,2013-08-03 11:50:00,
2013-08-03 04:00:00,54.4,54.4,29.47,SSW,194,0.0,0.0,100,0.00,,,0.01,Wunderground v.1.15,2013-08-03 12:00:00,
2013-08-03 04:10:00,54.8,54.8,29.47,SSW,194,0.0,1.0,100,0.00,,,0.01,Wunderground v.1.15,2013-08-03 12:10:00,
2013-08-03 04:15:00,54.7,54.7,29.47,SSW,194,0.0,1.0,100,0.00,,,0.01,Wunderground v.1.15,2013-08-03 12:15:00,
2013-08-03 04:25:00,55.0,55.0,29.47,SSW,194,1.0,1.0,100,0.00,,,0.01,Wunderground v.1.15,2013-08-03 12:25:00,
2013-08-03 04:35:00,55.3,55.3,29.46,SSW,194,1.0,1.0,100,0.00,,,0.01,Wunderground v.1.15,2013-08-03 12:35:00,
2013-08-03 04:45:00,56.0,56.0,29.46,SSW,194,0.0,1.0,100,0.00,,,0.01,Wunderground v.1.15,2013-08-03 12:45:00,
2013-08-03 04:55:00,56.5,56.5,29.46,SSW,194,0.0,0.0,100,0.00,,,0.01,Wunderground v.1.15,2013-08-03 12:55:00,
2013-08-03 05:05:00,56.6,56.6,29.46,SSW,194,0.0,0.0,100,0.00,,,0.01,Wunderground v.1.15,2013-08-03 13:05:00,
2013-08-03 05:10:00,56.6,56.6,29.46,SSW,194,0.0,0.0,100,0.00,,,0.01,Wunderground v.1.15,2013-08-03 13:10:00,
2013-08-03 05:20:00,56.7,56.7,29.45,SSW,194,0.0,1.0,100,0.00,,,0.01,Wunderground v.1.15,2013-08-03 13:20:00,
2013-08-03 05:30:00,56.7,56.7,29.45,SSW,194,0.0,0.0,100,0.00,,,0.01,Wunderground v.1.15,2013-08-03 13:30:00,
2013-08-03 05:40:00,56.9,56.9,29.45,SSW,194,0.0,0.0,100,0.00,,,0.01,Wunderground v.1.15,2013-08-03 13:40:00,
2013-08-03 05:49:00,57.0,57.0,29.45,SSW,194,0.0,2.0,100,0.00,,,0.01,Wunderground v.1.15,2013-08-03 13:49:00,
2013-08-03 06:00:00,57.3,57.3,29.45,SSW,194,0.0,0.0,100,0.00,,,0.01,Wunderground v.1.15,2013-08-03 14:00:00,
2013-08-03 06:05:00,57.5,57.5,29.45,SSW,197,1.0,1.0,100,0.00,,,0.01,Wunderground v.1.15,2013-08-03 14:05:00,
2013-08-03 06:15:00,58.0,57.2,29.45,SE,125,2.0,7.0,97,0.00,,,0.01,Wunderground v.1.15,2013-08-03 14:15:00,
2013-08-03 06:24:00,57.6,56.5,29.45,SE,140,1.0,4.0,96,0.00,,,0.01,Wunderground v.1.15,2013-08-03 14:24:00,
2013-08-03 06:35:00,57.3,56.2,29.44,SSE,164,3.0,3.0,96,0.00,,,0.01,Wunderground v.1.15,2013-08-03 14:35:00,
2013-08-03 06:45:00,57.0,56.2,29.44,SSE,164,3.0,4.0,97,0.00,,,0.01,Wunderground v.1.15,2013-08-03 14:45:00,
2013-08-03 06:55:00,56.9,55.8,29.44,SSE,164,1.0,2.0,96,0.00,,,0.01,Wunderground v.1.15,2013-08-03 14:55:00,
2013-08-03 07:00:00,57.0,55.6,29.43,SSE,164,1.0,1.0,95,0.00,,,0.01,Wunderground v.1.15,2013-08-03 15:00:00,
2013-08-03 07:10:00,56.7,56.1,29.43,SW,222,1.0,4.0,98,0.00,,,0.01,Wunderground v.1.15,2013-08-03 15:10:00,
2013-08-03 07:14:00,56.6,55.8,29.43,WSW,244,1.0,4.0,97,0.00,,,0.01,Wunderground v.1.15,2013-08-03 15:14:00,
2013-08-03 07:25:00,56.9,55.5,29.43,East,81,2.0,3.0,95,0.00,,,0.01,Wunderground v.1.15,2013-08-03 15:25:00,
2013-08-03 07:35:00,57.2,54.3,29.43,East,81,0.0,2.0,90,0.00,,,0.01,Wunderground v.1.15,2013-08-03 15:35:00,
2013-08-03 07:44:00,57.0,54.7,29.43,East,81,1.0,1.0,92,0.00,,,0.01,Wunderground v.1.15,2013-08-03 15:44:00,
2013-08-03 07:54:00,57.2,54.9,29.43,East,81,0.0,0.0,92,0.00,,,0.01,Wunderground v.1.15,2013-08-03 15:54:00,
2013-08-03 08:04:00,57.3,55.3,29.43,SSE,156,2.0,7.0,93,0.00,,,0.01,Wunderground v.1.15,2013-08-03 16:04:00,
2013-08-03 08:09:00,57.3,55.3,29.43,SSE,156,2.0,5.0,93,0.00,,,0.01,Wunderground v.1.15,2013-08-03 16:09:00,
2013-08-03 08:19:00,57.2,55.2,29.43,SSE,156,4.0,7.0,93,0.00,,,0.01,Wunderground v.1.15,2013-08-03 16:19:00,
2013-08-03 08:30:00,57.5,55.5,29.42,SSE,156,5.0,5.0,93,0.00,,,0.01,Wunderground v.1.15,2013-08-03 16:30:00,
2013-08-03 08:40:00,57.8,55.8,29.42,SSE,156,6.0,6.0,93,0.00,,,0.02,Wunderground v.1.15,2013-08-03 16:40:00,
2013-08-03 08:46:00,57.8,56.1,29.43,SSE,159,5.0,6.0,94,0.00,,,0.02,Wunderground v.1.15,2013-08-03 16:46:00,
2013-08-03 08:56:00,57.8,56.1,29.43,SSE,167,5.0,5.0,94,0.00,,,0.02,Wunderground v.1.15,2013-08-03 16:56:00,
2013-08-03 09:05:00,58.1,56.4,29.43,South,169,6.0,9.0,94,0.00,,,0.02,Wunderground v.1.15,2013-08-03 17:05:00,
2013-08-03 09:15:00,58.1,56.4,29.43,SSE,156,7.0,7.0,94,0.00,,,0.02,Wunderground v.1.15,2013-08-03 17:15:00,
2013-08-03 09:20:00,58.3,56.9,29.43,SSE,152,6.0,6.0,95,0.00,,,0.02,Wunderground v.1.15,2013-08-03 17:20:00,
2013-08-03 09:30:00,58.3,56.6,29.42,SSE,156,6.0,6.0,94,0.00,,,0.02,Wunderground v.1.15,2013-08-03 17:30:00,
2013-08-03 09:40:00,58.3,56.9,29.42,SSE,156,5.0,6.0,95,0.00,,,0.02,Wunderground v.1.15,2013-08-03 17:40:00,
2013-08-03 09:50:00,58.3,57.2,29.42,SSE,156,6.0,7.0,96,0.00,,,0.02,Wunderground v.1.15,2013-08-03 17:50:00,
2013-08-03 09:55:00,58.4,57.6,29.42,SSE,156,5.0,7.0,97,0.00,,,0.02,Wunderground v.1.15,2013-08-03 17:55:00,
2013-08-03 10:06:00,58.6,57.8,29.42,SSE,156,5.0,5.0,97,0.00,,,0.02,Wunderground v.1.15,2013-08-03 18:06:00,
2013-08-03 10:15:00,58.9,58.1,29.42,SSE,156,5.0,7.0,97,0.00,,,0.02,Wunderground v.1.15,2013-08-03 18:15:00,
2013-08-03 10:25:00,58.7,58.1,29.42,SSE,156,4.0,6.0,98,0.00,,,0.02,Wunderground v.1.15,2013-08-03 18:25:00,
2013-08-03 10:35:00,58.1,58.1,29.42,SSE,157,5.0,6.0,100,0.10,,,0.04,Wunderground v.1.15,2013-08-03 18:35:00,
2013-08-03 10:45:00,58.3,58.3,29.41,SSE,159,4.0,4.0,100,0.25,,,0.06,Wunderground v.1.15,2013-08-03 18:45:00,
2013-08-03 10:50:00,58.3,58.3,29.41,SSE,159,4.0,5.0,100,0.25,,,0.07,Wunderground v.1.15,2013-08-03 18:50:00,
2013-08-03 11:00:00,58.1,58.1,29.42,SSW,210,5.0,6.0,100,0.13,,,0.10,Wunderground v.1.15,2013-08-03 19:00:00,
2013-08-03 11:10:00,58.0,58.0,29.42,SSW,211,5.0,5.0,100,0.09,,,0.12,Wunderground v.1.15,2013-08-03 19:10:00,
2013-08-03 11:15:00,58.0,58.0,29.42,SW,214,5.0,6.0,100,0.09,,,0.12,Wunderground v.1.15,2013-08-03 19:15:00,
2013-08-03 11:25:00,57.8,57.8,29.42,SSW,211,5.0,10.0,100,0.04,,,0.12,Wunderground v.1.15,2013-08-03 19:25:00,
2013-08-03 11:35:00,57.5,57.5,29.42,SSW,210,6.0,8.0,100,0.00,,,0.12,Wunderground v.1.15,2013-08-03 19:35:00,
2013-08-03 11:45:00,57.3,57.3,29.42,SSW,208,6.0,7.0,100,0.00,,,0.13,Wunderground v.1.15,2013-08-03 19:45:00,
2013-08-03 11:55:00,57.5,57.5,29.42,SW,222,5.0,7.0,100,0.06,,,0.14,Wunderground v.1.15,2013-08-03 19:55:00,
2013-08-03 12:00:00,57.6,57.6,29.42,SW,229,5.0,6.0,100,0.05,,,0.14,Wunderground v.1.15,2013-08-03 20:00:00,
2013-08-03 12:10:00,57.8,57.8,29.42,SW,225,6.0,6.0,100,0.00,,,0.14,Wunderground v.1.15,2013-08-03 20:10:00,
2013-08-03 12:15:00,57.8,57.8,29.42,SW,214,5.0,10.0,100,0.00,,,0.15,Wunderground v.1.15,2013-08-03 20:15:00,
2013-08-03 12:25:00,57.8,57.8,29.42,SW,221,6.0,6.0,100,0.00,,,0.15,Wunderground v.1.15,2013-08-03 20:25:00,
2013-08-03 12:30:00,57.8,57.8,29.42,SW,215,5.0,6.0,100,0.00,,,0.15,Wunderground v.1.15,2013-08-03 20:30:00,
2013-08-03 12:40:00,57.8,57.8,29.42,SSW,204,5.0,6.0,100,0.00,,,0.15,Wunderground v.1.15,2013-08-03 20:40:00,
2013-08-03 12:50:00,58.0,58.0,29.42,SSW,212,5.0,5.0,100,0.00,,,0.15,Wunderground v.1.15,2013-08-03 20:50:00,
2013-08-03 12:55:00,58.3,58.3,29.42,SW,229,4.0,6.0,100,0.00,,,0.15,Wunderground v.1.15,2013-08-03 20:55:00,
2013-08-03 13:10:00,57.8,57.8,29.42,SSW,203,6.0,6.0,100,0.00,,,0.15,Wunderground v.1.15,2013-08-03 21:10:00,
2013-08-03 13:15:00,57.5,57.5,29.42,SW,215,6.0,7.0,100,0.00,,,0.15,Wunderground v.1.15,2013-08-03 21:15:00,
2013-08-03 13:25:00,57.5,57.5,29.42,SW,224,5.0,6.0,100,0.00,,,0.15,Wunderground v.1.15,2013-08-03 21:25:00,
2013-08-03 13:35:00,57.6,57.6,29.42,SW,224,5.0,5.0,100,0.00,,,0.15,Wunderground v.1.15,2013-08-03 21:35:00,
2013-08-03 13:45:00,57.6,57.6,29.42,SSW,210,6.0,6.0,100,0.00,,,0.15,Wunderground v.1.15,2013-08-03 21:45:00,
2013-08-03 13:55:00,57.8,57.8,29.42,SW,225,4.0,7.0,100,0.00,,,0.15,Wunderground v.1.15,2013-08-03 21:55:00,
2013-08-03 14:05:00,57.6,57.6,29.42,SSW,210,5.0,5.0,100,0.00,,,0.15,Wunderground v.1.15,2013-08-03 22:05:00,
2013-08-03 14:15:00,57.5,57.5,29.42,SW,228,4.0,6.0,100,0.00,,,0.15,Wunderground v.1.15,2013-08-03 22:15:00,
2013-08-03 14:25:00,57.5,57.5,29.42,SW,220,3.0,6.0,100,0.00,,,0.16,Wunderground v.1.15,2013-08-03 22:25:00,
2013-08-03 14:35:00,57.5,57.2,29.42,SW,221,4.0,5.0,99,0.00,,,0.16,Wunderground v.1.15,2013-08-03 22:35:00,
2013-08-03 14:45:00,57.6,57.0,29.42,SSW,198,4.0,6.0,98,0.00,,,0.16,Wunderground v.1.15,2013-08-03 22:45:00,
2013-08-03 14:50:00,57.6,57.0,29.42,SSW,210,5.0,5.0,98,0.00,,,0.16,Wunderground v.1.15,2013-08-03 22:50:00,
2013-08-03 15:00:00,58.0,57.4,29.42,SSW,207,5.0,6.0,98,0.00,,,0.16,Wunderground v.1.15,2013-08-03 23:00:00,
2013-08-03 15:10:00,58.0,56.9,29.42,SSW,203,5.0,5.0,96,0.00,,,0.16,Wunderground v.1.15,2013-08-03 23:10:00,
2013-08-03 15:20:00,58.0,56.9,29.42,SSW,212,5.0,5.0,96,0.00,,,0.16,Wunderground v.1.15,2013-08-03 23:20:00,
2013-08-03 15:25:00,58.1,57.5,29.42,SSW,212,4.0,5.0,98,0.00,,,0.16,Wunderground v.1.15,2013-08-03 23:25:00,
2013-08-03 15:35:00,58.1,57.3,29.42,SSW,204,4.0,4.0,97,0.00,,,0.16,Wunderground v.1.15,2013-08-03 23:35:00,
2013-08-03 15:45:00,58.1,57.0,29.41,SSW,205,4.0,6.0,96,0.00,,,0.16,Wunderground v.1.15,2013-08-03 23:45:00,
2013-08-03 15:55:00,58.3,57.5,29.41,SSW,204,3.0,3.0,97,0.00,,,0.16,Wunderground v.1.15,2013-08-03 23:55:00,
2013-08-03 16:05:00,58.1,56.7,29.41,SSW,203,3.0,5.0,95,0.00,,,0.16,Wunderground v.1.15,2013-08-04 00:05:00,
2013-08-03 16:15:00,57.8,56.7,29.41,SSW,207,3.0,5.0,96,0.00,,,0.17,Wunderground v.1.15,2013-08-04 00:15:00,
2013-08-03 16:25:00,56.9,56.3,29.41,SSW,193,5.0,5.0,98,0.00,,,0.17,Wunderground v.1.15,2013-08-04 00:25:00,
2013-08-03 16:35:00,56.5,56.5,29.41,SSW,193,4.0,5.0,100,0.04,,,0.18,Wunderground v.1.15,2013-08-04 00:35:00,
2013-08-03 16:40:00,56.5,56.5,29.41,SSW,193,3.0,3.0,100,0.13,,,0.19,Wunderground v.1.15,2013-08-04 00:40:00,
2013-08-03 16:50:00,56.7,56.7,29.41,SSW,193,3.0,5.0,100,0.04,,,0.19,Wunderground v.1.15,2013-08-04 00:50:00,
2013-08-03 17:00:00,56.6,56.6,29.41,SSW,196,3.0,3.0,100,0.00,,,0.20,Wunderground v.1.15,2013-08-04 01:00:00,
2013-08-03 17:10:00,56.7,56.7,29.41,SSW,194,3.0,3.0,100,0.07,,,0.21,Wunderground v.1.15,2013-08-04 01:10:00,
2013-08-03 17:15:00,56.7,56.7,29.41,SSW,194,2.0,3.0,100,0.05,,,0.21,Wunderground v.1.15,2013-08-04 01:15:00,
2013-08-03 17:25:00,56.7,56.7,29.41,SSW,198,2.0,5.0,100,0.00,,,0.21,Wunderground v.1.15,2013-08-04 01:25:00,
2013-08-03 17:30:00,56.7,56.7,29.41,SSW,198,2.0,2.0,100,0.00,,,0.21,Wunderground v.1.15,2013-08-04 01:30:00,
2013-08-03 17:40:00,56.9,56.9,29.41,SSW,198,1.0,1.0,100,0.00,,,0.21,Wunderground v.1.15,2013-08-04 01:40:00,
2013-08-03 17:45:00,57.0,57.0,29.41,SSW,198,1.0,1.0,100,0.00,,,0.21,Wunderground v.1.15,2013-08-04 01:45:00,
2013-08-03 17:55:00,57.3,57.3,29.41,SSW,198,0.0,1.0,100,0.00,,,0.21,Wunderground v.1.15,2013-08-04 01:55:00,
2013-08-03 18:05:00,57.3,57.3,29.40,SSW,198,0.0,0.0,100,0.00,,,0.21,Wunderground v.1.15,2013-08-04 02:05:00,
2013-08-03 18:10:00,57.3,57.3,29.40,SSW,198,0.0,0.0,100,0.00,,,0.21,Wunderground v.1.15,2013-08-04 02:10:00,
2013-08-03 18:20:00,57.5,57.5,29.40,SSW,198,0.0,0.0,100,0.00,,,0.22,Wunderground v.1.15,2013-08-04 02:20:00,
2013-08-03 18:30:00,57.8,57.8,29.40,SSW,198,0.0,0.0,100,0.00,,,0.22,Wunderground v.1.15,2013-08-04 02:30:00,
2013-08-03 18:35:00,58.0,58.0,29.40,SSW,198,0.0,0.0,100,0.00,,,0.22,Wunderground v.1.15,2013-08-04 02:35:00,
2013-08-03 18:45:00,58.1,57.8,29.40,SSW,198,0.0,0.0,99,0.00,,,0.22,Wunderground v.1.15,2013-08-04 02:45:00,
2013-08-03 18:50:00,58.3,58.0,29.40,SSW,198,0.0,0.0,99,0.00,,,0.22,Wunderground v.1.15,2013-08-04 02:50:00,
2013-08-03 19:00:00,58.4,58.1,29.40,SSW,198,0.0,0.0,99,0.00,,,0.22,Wunderground v.1.15,2013-08-04 03:00:00,
2013-08-03 19:10:00,58.4,57.8,29.40,SSW,198,0.0,0.0,98,0.00,,,0.22,Wunderground v.1.15,2013-08-04 03:10:00,
2013-08-03 19:20:00,58.6,58.0,29.40,SSW,198,0.0,0.0,98,0.00,,,0.22,Wunderground v.1.15,2013-08-04 03:20:00,
2013-08-03 19:30:00,58.7,57.6,29.39,SSW,198,0.0,0.0,96,0.00,,,0.22,Wunderground v.1.15,2013-08-04 03:30:00,
2013-08-03 19:40:00,58.4,57.3,29.39,SSW,198,0.0,0.0,96,0.00,,,0.22,Wunderground v.1.15,2013-08-04 03:40:00,
2013-08-03 19:50:00,58.6,57.5,29.40,SSW,198,0.0,0.0,96,0.00,,,0.22,Wunderground v.1.15,2013-08-04 03:50:00,
2013-08-03 20:00:00,58.6,57.8,29.39,SSW,198,0.0,0.0,97,0.00,,,0.22,Wunderground v.1.15,2013-08-04 04:00:00,
2013-08-03 20:05:00,58.6,57.5,29.39,SSW,211,0.0,0.0,96,0.00,,,0.22,Wunderground v.1.15,2013-08-04 04:05:00,
2013-08-03 20:10:00,58.7,57.6,29.39,SSW,196,0.0,0.0,96,0.00,,,0.22,Wunderground v.1.15,2013-08-04 04:10:00,
2013-08-03 20:15:00,58.6,57.8,29.39,SSW,196,0.0,0.0,97,0.00,,,0.22,Wunderground v.1.15,2013-08-04 04:15:00,
2013-08-03 20:20:00,58.4,57.6,29.39,SSW,196,0.0,2.0,97,0.00,,,0.22,Wunderground v.1.15,2013-08-04 04:20:00,
2013-08-03 20:30:00,58.3,57.7,29.39,SSW,196,0.0,0.0,98,0.00,,,0.22,Wunderground v.1.15,2013-08-04 04:30:00,
2013-08-03 20:35:00,58.3,57.7,29.39,SSW,196,0.0,0.0,98,0.00,,,0.22,Wunderground v.1.15,2013-08-04 04:35:00,
2013-08-03 20:40:00,58.3,57.7,29.39,SSW,196,1.0,3.0,98,0.00,,,0.22,Wunderground v.1.15,2013-08-04 04:40:00,
2013-08-03 20:45:00,58.3,57.7,29.39,SSW,196,2.0,3.0,98,0.00,,,0.22,Wunderground v.1.15,2013-08-04 04:45:00,
2013-08-03 20:55:00,58.3,57.7,29.39,SSW,196,1.0,1.0,98,0.00,,,0.22,Wunderground v.1.15,2013-08-04 04:55:00,
2013-08-03 21:00:00,58.3,57.7,29.38,SSW,196,0.0,0.0,98,0.00,,,0.22,Wunderground v.1.15,2013-08-04 05:00:00,
2013-08-03 21:10:00,58.3,57.7,29.38,SSE,159,0.0,0.0,98,0.00,,,0.22,Wunderground v.1.15,2013-08-04 05:10:00,
2013-08-03 21:20:00,58.1,57.5,29.38,SE,143,0.0,1.0,98,0.00,,,0.22,Wunderground v.1.15,2013-08-04 05:20:00,
2013-08-03 21:25:00,58.0,57.4,29.38,SE,142,1.0,2.0,98,0.00,,,0.22,Wunderground v.1.15,2013-08-04 05:25:00,
2013-08-03 21:30:00,58.0,57.4,29.38,SE,138,1.0,2.0,98,0.00,,,0.22,Wunderground v.1.15,2013-08-04 05:30:00,
2013-08-03 21:40:00,57.6,57.3,29.38,SE,124,2.0,2.0,99,0.00,,,0.22,Wunderground v.1.15,2013-08-04 05:40:00,
2013-08-03 21:45:00,57.6,57.0,29.38,SE,124,2.0,2.0,98,0.00,,,0.22,Wunderground v.1.15,2013-08-04 05:45:00,
2013-08-03 21:55:00,57.6,56.8,29.38,SE,124,1.0,1.0,97,0.00,,,0.22,Wunderground v.1.15,2013-08-04 05:55:00,
2013-08-03 22:05:00,57.5,56.9,29.38,ESE,119,1.0,3.0,98,0.00,,,0.22,Wunderground v.1.15,2013-08-04 06:05:00,
2013-08-03 22:15:00,57.3,57.0,29.38,ESE,118,1.0,1.0,99,0.00,,,0.22,Wunderground v.1.15,2013-08-04 06:15:00,
2013-08-03 22:25:00,57.2,57.2,29.38,ESE,118,0.0,0.0,100,0.00,,,0.22,Wunderground v.1.15,2013-08-04 06:25:00,
2013-08-03 22:35:00,57.0,57.0,29.39,ESE,118,0.0,0.0,100,0.00,,,0.22,Wunderground v.1.15,2013-08-04 06:35:00,
2013-08-03 22:40:00,56.9,56.9,29.39,ESE,118,0.0,0.0,100,0.00,,,0.22,Wunderground v.1.15,2013-08-04 06:40:00,
2013-08-03 22:50:00,56.7,56.7,29.38,ESE,118,0.0,0.0,100,0.00,,,0.22,Wunderground v.1.15,2013-08-04 06:50:00,
2013-08-03 23:00:00,56.6,56.6,29.38,ESE,118,1.0,1.0,100,0.00,,,0.22,Wunderground v.1.15,2013-08-04 07:00:00,
2013-08-03 23:05:00,56.5,56.5,29.38,ESE,118,0.0,1.0,100,0.00,,,0.22,Wunderground v.1.15,2013-08-04 07:05:00,
2013-08-03 23:15:00,56.3,56.3,29.39,ESE,118,0.0,0.0,100,0.00,,,0.22,Wunderground v.1.15,2013-08-04 07:15:00,
2013-08-03 23:25:00,56.0,56.0,29.39,ESE,118,0.0,0.0,100,0.00,,,0.22,Wunderground v.1.15,2013-08-04 07:25:00,
2013-08-03 23:35:00,55.9,55.9,29.39,ESE,118,0.0,0.0,100,0.00,,,0.22,Wunderground v.1.15,2013-08-04 07:35:00,
2013-08-03 23:40:00,55.9,55.9,29.39,ESE,118,0.0,0.0,100,0.00,,,0.22,Wunderground v.1.15,2013-08-04 07:40:00,
2013-08-03 23:50:00,55.9,55.9,29.39,ESE,118,0.0,2.0,100,0.00,,,0.22,Wunderground v.1.15,2013-08-04 07:50:00,